Time,TemperatureF,DewpointF,PressureIn,WindDirection,WindDirectionDegrees,WindSpeedMPH,WindSpeedGustMPH,Humidity,HourlyPrecipIn,Conditions,Clouds,dailyrainin,SoftwareType,DateUTC
2013-01-17 00:05:00,26.0,-99.9,-100.00,NNW,330,17.0,24.0,-999,-99.99,,,-99.99,,2013-01-17 05:05:00,
2013-01-17 00:12:00,25.0,-99.9,-100.00,NNW,340,17.0,24.0,-999,-99.99,,,-99.99,,2013-01-17 05:12:00,
2013-01-17 00:22:00,25.0,-99.9,-100.00,NNW,340,17.0,24.0,-999,-99.99,,,-99.99,,2013-01-17 05:22:00,
2013-01-17 00:33:00,25.0,-99.9,-100.00,NNW,340,13.0,22.0,-999,-99.99,,,-99.99,,2013-01-17 05:33:00,
2013-01-17 00:43:00,24.0,-99.9,-100.00,NNW,340,16.0,24.0,-999,-99.99,,,-99.99,,2013-01-17 05:43:00,
2013-01-17 00:53:00,24.0,-99.9,-100.00,NNW,340,16.0,24.0,-999,-99.99,,,-99.99,,2013-01-17 05:53:00,
2013-01-17 01:03:00,23.0,-99.9,-100.00,NNW,340,13.0,20.0,-999,-99.99,,,-99.99,,2013-01-17 06:03:00,
2013-01-17 01:12:00,23.0,-99.9,-100.00,NNW,330,11.0,17.0,-999,-99.99,,,-99.99,,2013-01-17 06:12:00,
2013-01-17 01:22:00,23.0,-99.9,-100.00,NNW,330,11.0,17.0,-999,-99.99,,,-99.99,,2013-01-17 06:22:00,
2013-01-17 01:33:00,23.0,-99.9,-100.00,NNW,330,16.0,25.0,-999,-99.99,,,-99.99,,2013-01-17 06:33:00,
2013-01-17 01:42:00,22.0,-99.9,-100.00,NNW,330,15.0,21.0,-999,-99.99,,,-99.99,,2013-01-17 06:42:00,
2013-01-17 01:53:00,22.0,-99.9,-100.00,NNW,330,15.0,21.0,-999,-99.99,,,-99.99,,2013-01-17 06:53:00,
2013-01-17 02:02:00,22.0,-99.9,-100.00,NNW,330,15.0,22.0,-999,-99.99,,,-99.99,,2013-01-17 07:02:00,
2013-01-17 02:12:00,21.0,-99.9,-100.00,NNW,330,14.0,24.0,-999,-99.99,,,-99.99,,2013-01-17 07:12:00,
2013-01-17 02:22:00,21.0,-99.9,-100.00,NNW,330,14.0,24.0,-999,-99.99,,,-99.99,,2013-01-17 07:22:00,
2013-01-17 02:33:00,21.0,-99.9,-100.00,NNW,330,16.0,23.0,-999,-99.99,,,-99.99,,2013-01-17 07:33:00,
2013-01-17 02:43:00,21.0,-99.9,-100.00,NNW,330,14.0,20.0,-999,-99.99,,,-99.99,,2013-01-17 07:43:00,
2013-01-17 02:53:00,21.0,-99.9,-100.00,NNW,330,14.0,20.0,-999,-99.99,,,-99.99,,2013-01-17 07:53:00,
2013-01-17 03:02:00,20.0,-99.9,-100.00,NNW,340,13.0,20.0,-999,-99.99,,,-99.99,,2013-01-17 08:02:00,
2013-01-17 03:12:00,20.0,-99.9,-100.00,NNW,330,11.0,20.0,-999,-99.99,,,-99.99,,2013-01-17 08:12:00,
2013-01-17 03:22:00,20.0,-99.9,-100.00,NNW,330,11.0,20.0,-999,-99.99,,,-99.99,,2013-01-17 08:22:00,
2013-01-17 03:33:00,20.0,-99.9,-100.00,NW,320,11.0,16.0,-999,-99.99,,,-99.99,,2013-01-17 08:33:00,
2013-01-17 03:44:00,20.0,-99.9,-100.00,NNW,330,13.0,20.0,-999,-99.99,,,-99.99,,2013-01-17 08:44:00,
2013-01-17 03:53:00,20.0,-99.9,-100.00,NNW,330,13.0,20.0,-999,-99.99,,,-99.99,,2013-01-17 08:53:00,
2013-01-17 04:03:00,19.0,-99.9,-100.00,NW,320,15.0,21.0,-999,-99.99,,,-99.99,,2013-01-17 09:03:00,
2013-01-17 04:12:00,19.0,-99.9,-100.00,NW,320,14.0,20.0,-999,-99.99,,,-99.99,,2013-01-17 09:12:00,
2013-01-17 04:22:00,19.0,-99.9,-100.00,NW,320,14.0,20.0,-999,-99.99,,,-99.99,,2013-01-17 09:22:00,
2013-01-17 04:33:00,19.0,-99.9,-100.00,NNW,330,16.0,24.0,-999,-99.99,,,-99.99,,2013-01-17 09:33:00,
2013-01-17 04:43:00,19.0,-99.9,-100.00,NNW,330,16.0,24.0,-999,-99.99,,,-99.99,,2013-01-17 09:43:00,
2013-01-17 04:53:00,19.0,-99.9,-100.00,NNW,340,15.0,20.0,-999,-99.99,,,-99.99,,2013-01-17 09:53:00,
2013-01-17 05:02:00,19.0,-99.9,-100.00,NNW,340,15.0,20.0,-999,-99.99,,,-99.99,,2013-01-17 10:02:00,
2013-01-17 05:12:00,18.0,-99.9,-100.00,NW,320,11.0,18.0,-999,-99.99,,,-99.99,,2013-01-17 10:12:00,
2013-01-17 05:22:00,18.0,-99.9,-100.00,NW,320,11.0,18.0,-999,-99.99,,,-99.99,,2013-01-17 10:22:00,
2013-01-17 05:33:00,18.0,-99.9,-100.00,NNW,330,13.0,21.0,-999,-99.99,,,-99.99,,2013-01-17 10:33:00,
2013-01-17 05:43:00,18.0,-99.9,-100.00,NW,320,11.0,16.0,-999,-99.99,,,-99.99,,2013-01-17 10:43:00,
2013-01-17 05:53:00,18.0,-99.9,-100.00,NW,320,11.0,16.0,-999,-99.99,,,-99.99,,2013-01-17 10:53:00,
2013-01-17 06:03:00,17.0,-99.9,-100.00,NW,320,11.0,17.0,-999,-99.99,,,-99.99,,2013-01-17 11:03:00,
2013-01-17 06:12:00,17.0,-99.9,-100.00,NW,320,11.0,16.0,-999,-99.99,,,-99.99,,2013-01-17 11:12:00,
2013-01-17 06:23:00,17.0,-99.9,-100.00,NW,320,11.0,16.0,-999,-99.99,,,-99.99,,2013-01-17 11:23:00,
2013-01-17 06:33:00,17.0,-99.9,-100.00,NNW,330,9.0,15.0,-999,-99.99,,,-99.99,,2013-01-17 11:33:00,
2013-01-17 06:43:00,17.0,-99.9,-100.00,NNW,330,6.0,8.0,-999,-99.99,,,-99.99,,2013-01-17 11:43:00,
2013-01-17 06:53:00,17.0,-99.9,-100.00,NNW,330,6.0,8.0,-999,-99.99,,,-99.99,,2013-01-17 11:53:00,
2013-01-17 07:03:00,16.0,-99.9,-100.00,NNW,340,7.0,10.0,-999,-99.99,,,-99.99,,2013-01-17 12:03:00,
2013-01-17 07:12:00,16.0,-99.9,-100.00,North,360,7.0,10.0,-999,-99.99,,,-99.99,,2013-01-17 12:12:00,
2013-01-17 07:23:00,16.0,-99.9,-100.00,North,360,7.0,10.0,-999,-99.99,,,-99.99,,2013-01-17 12:23:00,
2013-01-17 07:33:00,15.0,-99.9,-100.00,North,360,6.0,9.0,-999,-99.99,,,-99.99,,2013-01-17 12:33:00,
2013-01-17 07:43:00,15.0,-99.9,-100.00,North,10,6.0,8.0,-999,-99.99,,,-99.99,,2013-01-17 12:43:00,
2013-01-17 07:53:00,15.0,-99.9,-100.00,North,360,6.0,8.0,-999,-99.99,,,-99.99,,2013-01-17 12:53:00,
2013-01-17 08:03:00,15.0,-99.9,-100.00,North,360,6.0,8.0,-999,-99.99,,,-99.99,,2013-01-17 13:03:00,
2013-01-17 08:13:00,15.0,-99.9,-100.00,NW,320,6.0,7.0,-999,-99.99,,,-99.99,,2013-01-17 13:13:00,
2013-01-17 08:23:00,15.0,-99.9,-100.00,NW,320,6.0,7.0,-999,-99.99,,,-99.99,,2013-01-17 13:23:00,
2013-01-17 08:33:00,14.0,-99.9,-100.00,NNE,20,7.0,8.0,-999,-99.99,,,-99.99,,2013-01-17 13:33:00,
2013-01-17 08:43:00,14.0,-99.9,-100.00,NNE,20,7.0,8.0,-999,-99.99,,,-99.99,,2013-01-17 13:43:00,
2013-01-17 08:53:00,14.0,-99.9,-100.00,NNE,30,5.0,7.0,-999,-99.99,,,-99.99,,2013-01-17 13:53:00,
2013-01-17 09:03:00,14.0,-99.9,-100.00,NNE,30,6.0,7.0,-999,-99.99,,,-99.99,,2013-01-17 14:03:00,
2013-01-17 09:13:00,14.0,-99.9,-100.00,NNE,30,6.0,7.0,-999,-99.99,,,-99.99,,2013-01-17 14:13:00,
2013-01-17 09:23:00,14.0,-99.9,-100.00,NNE,30,6.0,7.0,-999,-99.99,,,-99.99,,2013-01-17 14:23:00,
2013-01-17 09:33:00,14.0,-99.9,-100.00,NNE,20,5.0,7.0,-999,-99.99,,,-99.99,,2013-01-17 14:33:00,
2013-01-17 09:43:00,14.0,-99.9,-100.00,NE,40,6.0,7.0,-999,-99.99,,,-99.99,,2013-01-17 14:43:00,
2013-01-17 09:53:00,14.0,-99.9,-100.00,NE,40,6.0,7.0,-999,-99.99,,,-99.99,,2013-01-17 14:53:00,
2013-01-17 10:03:00,14.0,-99.9,-100.00,North,10,6.0,7.0,-999,-99.99,,,-99.99,,2013-01-17 15:03:00,
2013-01-17 10:13:00,14.0,-99.9,-100.00,NNE,30,6.0,8.0,-999,-99.99,,,-99.99,,2013-01-17 15:13:00,
2013-01-17 10:23:00,14.0,-99.9,-100.00,NNE,30,6.0,8.0,-999,-99.99,,,-99.99,,2013-01-17 15:23:00,
2013-01-17 10:33:00,14.0,-99.9,-100.00,NNE,30,6.0,7.0,-999,-99.99,,,-99.99,,2013-01-17 15:33:00,
2013-01-17 10:44:00,14.0,-99.9,-100.00,North,360,2.0,5.0,-999,-99.99,,,-99.99,,2013-01-17 15:44:00,
2013-01-17 10:53:00,14.0,-99.9,-100.00,North,360,2.0,5.0,-999,-99.99,,,-99.99,,2013-01-17 15:53:00,
2013-01-17 11:03:00,14.0,-99.9,-100.00,North,360,2.0,3.0,-999,-99.99,,,-99.99,,2013-01-17 16:03:00,
2013-01-17 11:13:00,14.0,-99.9,-100.00,NNW,330,5.0,8.0,-999,-99.99,,,-99.99,,2013-01-17 16:13:00,
2013-01-17 11:23:00,14.0,-99.9,-100.00,NNW,330,5.0,8.0,-999,-99.99,,,-99.99,,2013-01-17 16:23:00,
2013-01-17 11:34:00,14.0,-99.9,-100.00,NW,320,6.0,7.0,-999,-99.99,,,-99.99,,2013-01-17 16:34:00,
2013-01-17 11:44:00,15.0,-99.9,-100.00,NW,310,3.0,5.0,-999,-99.99,,,-99.99,,2013-01-17 16:44:00,
2013-01-17 11:53:00,15.0,-99.9,-100.00,NW,310,3.0,5.0,-999,-99.99,,,-99.99,,2013-01-17 16:53:00,
2013-01-17 12:03:00,16.0,-99.9,-100.00,NNW,340,3.0,6.0,-999,-99.99,,,-99.99,,2013-01-17 17:03:00,
2013-01-17 12:13:00,15.0,-99.9,-100.00,WNW,300,5.0,7.0,-999,-99.99,,,-99.99,,2013-01-17 17:13:00,
2013-01-17 12:23:00,15.0,-99.9,-100.00,WNW,300,5.0,7.0,-999,-99.99,,,-99.99,,2013-01-17 17:23:00,
2013-01-17 12:33:00,16.0,-99.9,-100.00,NNW,330,5.0,7.0,-999,-99.99,,,-99.99,,2013-01-17 17:33:00,
2013-01-17 12:43:00,16.0,-99.9,-100.00,NNW,340,7.0,9.0,-999,-99.99,,,-99.99,,2013-01-17 17:43:00,
2013-01-17 12:54:00,16.0,-99.9,-100.00,NNW,340,7.0,9.0,-999,-99.99,,,-99.99,,2013-01-17 17:54:00,
2013-01-17 13:04:00,16.0,-99.9,-100.00,NW,310,7.0,9.0,-999,-99.99,,,-99.99,,2013-01-17 18:04:00,
2013-01-17 13:13:00,16.0,-99.9,-100.00,NW,320,7.0,10.0,-999,-99.99,,,-99.99,,2013-01-17 18:13:00,
2013-01-17 13:23:00,16.0,-99.9,-100.00,NW,320,7.0,10.0,-999,-99.99,,,-99.99,,2013-01-17 18:23:00,
2013-01-17 13:34:00,16.0,-99.9,-100.00,NW,310,6.0,7.0,-999,-99.99,,,-99.99,,2013-01-17 18:34:00,
2013-01-17 13:44:00,16.0,-99.9,-100.00,NW,310,6.0,8.0,-999,-99.99,,,-99.99,,2013-01-17 18:44:00,
2013-01-17 13:54:00,16.0,-99.9,-100.00,NW,310,6.0,8.0,-999,-99.99,,,-99.99,,2013-01-17 18:54:00,
2013-01-17 14:04:00,16.0,-99.9,-100.00,WNW,290,7.0,9.0,-999,-99.99,,,-99.99,,2013-01-17 19:04:00,
2013-01-17 14:13:00,17.0,-99.9,-100.00,West,260,6.0,8.0,-999,-99.99,,,-99.99,,2013-01-17 19:13:00,
2013-01-17 14:23:00,17.0,-99.9,-100.00,West,260,6.0,8.0,-999,-99.99,,,-99.99,,2013-01-17 19:23:00,
2013-01-17 14:33:00,17.0,-99.9,-100.00,West,260,6.0,8.0,-999,-99.99,,,-99.99,,2013-01-17 19:33:00,
2013-01-17 14:43:00,17.0,-99.9,-100.00,West,260,6.0,8.0,-999,-99.99,,,-99.99,,2013-01-17 19:43:00,
2013-01-17 15:03:00,17.0,-99.9,-100.00,WNW,290,8.0,10.0,-999,-99.99,,,-99.99,,2013-01-17 20:03:00,
2013-01-17 15:13:00,17.0,-99.9,-100.00,WNW,300,5.0,7.0,-999,-99.99,,,-99.99,,2013-01-17 20:13:00,
2013-01-17 15:23:00,17.0,-99.9,-100.00,WNW,300,5.0,7.0,-999,-99.99,,,-99.99,,2013-01-17 20:23:00,
2013-01-17 15:34:00,18.0,-99.9,-100.00,West,280,9.0,14.0,-999,-99.99,,,-99.99,,2013-01-17 20:34:00,
2013-01-17 15:44:00,18.0,-99.9,-100.00,WNW,290,20.0,28.0,-999,-99.99,,,-99.99,,2013-01-17 20:44:00,
2013-01-17 15:54:00,18.0,-99.9,-100.00,WNW,290,20.0,28.0,-999,-99.99,,,-99.99,,2013-01-17 20:54:00,
2013-01-17 16:03:00,16.0,-99.9,-100.00,NW,310,11.0,16.0,-999,-99.99,,,-99.99,,2013-01-17 21:03:00,
2013-01-17 16:13:00,16.0,-99.9,-100.00,NW,310,11.0,16.0,-999,-99.99,,,-99.99,,2013-01-17 21:13:00,
2013-01-17 16:24:00,17.0,-99.9,-100.00,WNW,290,11.0,20.0,-999,-99.99,,,-99.99,,2013-01-17 21:24:00,
2013-01-17 16:34:00,17.0,-99.9,-100.00,NW,310,9.0,15.0,-999,-99.99,,,-99.99,,2013-01-17 21:34:00,
2013-01-17 16:43:00,16.0,-99.9,-100.00,WNW,300,14.0,20.0,-999,-99.99,,,-99.99,,2013-01-17 21:43:00,
2013-01-17 16:54:00,16.0,-99.9,-100.00,WNW,290,14.0,18.0,-999,-99.99,,,-99.99,,2013-01-17 21:54:00,
2013-01-17 17:04:00,16.0,-99.9,-100.00,WNW,290,14.0,18.0,-999,-99.99,,,-99.99,,2013-01-17 22:04:00,
2013-01-17 17:12:00,16.0,-99.9,-100.00,WNW,290,14.0,18.0,-999,-99.99,,,-99.99,,2013-01-17 22:12:00,
2013-01-17 17:23:00,16.0,-99.9,-100.00,WNW,300,13.0,17.0,-999,-99.99,,,-99.99,,2013-01-17 22:23:00,
2013-01-17 17:33:00,16.0,-99.9,-100.00,WNW,290,15.0,22.0,-999,-99.99,,,-99.99,,2013-01-17 22:33:00,
2013-01-17 17:43:00,16.0,-99.9,-100.00,WNW,290,15.0,22.0,-999,-99.99,,,-99.99,,2013-01-17 22:43:00,
2013-01-17 17:53:00,16.0,-99.9,-100.00,WNW,300,17.0,25.0,-999,-99.99,,,-99.99,,2013-01-17 22:53:00,
2013-01-17 18:03:00,15.0,-99.9,-100.00,WNW,300,18.0,24.0,-999,-99.99,,,-99.99,,2013-01-17 23:03:00,
2013-01-17 18:12:00,15.0,-99.9,-100.00,WNW,300,18.0,24.0,-999,-99.99,,,-99.99,,2013-01-17 23:12:00,
2013-01-17 18:23:00,15.0,-99.9,-100.00,NW,310,14.0,20.0,-999,-99.99,,,-99.99,,2013-01-17 23:23:00,
2013-01-17 18:33:00,15.0,-99.9,-100.00,WNW,300,15.0,21.0,-999,-99.99,,,-99.99,,2013-01-17 23:33:00,
2013-01-17 18:43:00,15.0,-99.9,-100.00,WNW,300,15.0,21.0,-999,-99.99,,,-99.99,,2013-01-17 23:43:00,
2013-01-17 18:53:00,14.0,-99.9,-100.00,WNW,290,10.0,14.0,-999,-99.99,,,-99.99,,2013-01-17 23:53:00,
2013-01-17 19:03:00,14.0,-99.9,-100.00,WNW,290,8.0,13.0,-999,-99.99,,,-99.99,,2013-01-18 00:03:00,
2013-01-17 19:13:00,13.0,-99.9,-100.00,WNW,290,8.0,11.0,-999,-99.99,,,-99.99,,2013-01-18 00:13:00,
2013-01-17 19:23:00,13.0,-99.9,-100.00,WNW,290,8.0,11.0,-999,-99.99,,,-99.99,,2013-01-18 00:23:00,
2013-01-17 19:33:00,13.0,-99.9,-100.00,WNW,300,10.0,13.0,-999,-99.99,,,-99.99,,2013-01-18 00:33:00,
2013-01-17 19:43:00,13.0,-99.9,-100.00,NW,310,11.0,16.0,-999,-99.99,,,-99.99,,2013-01-18 00:43:00,
2013-01-17 19:53:00,13.0,-99.9,-100.00,NW,310,11.0,16.0,-999,-99.99,,,-99.99,,2013-01-18 00:53:00,
2013-01-17 20:03:00,13.0,-99.9,-100.00,WNW,300,13.0,20.0,-999,-99.99,,,-99.99,,2013-01-18 01:03:00,
2013-01-17 20:13:00,13.0,-99.9,-100.00,WNW,300,13.0,15.0,-999,-99.99,,,-99.99,,2013-01-18 01:13:00,
2013-01-17 20:23:00,13.0,-99.9,-100.00,WNW,300,13.0,15.0,-999,-99.99,,,-99.99,,2013-01-18 01:23:00,
2013-01-17 20:33:00,12.0,-99.9,-100.00,WNW,300,9.0,14.0,-999,-99.99,,,-99.99,,2013-01-18 01:33:00,
2013-01-17 20:43:00,12.0,-99.9,-100.00,WNW,300,8.0,13.0,-999,-99.99,,,-99.99,,2013-01-18 01:43:00,
2013-01-17 20:53:00,12.0,-99.9,-100.00,WNW,300,8.0,13.0,-999,-99.99,,,-99.99,,2013-01-18 01:53:00,
2013-01-17 21:03:00,12.0,-99.9,-100.00,WNW,290,7.0,10.0,-999,-99.99,,,-99.99,,2013-01-18 02:03:00,
2013-01-17 21:12:00,12.0,-99.9,-100.00,WNW,290,7.0,10.0,-999,-99.99,,,-99.99,,2013-01-18 02:12:00,
2013-01-17 21:23:00,12.0,-99.9,-100.00,WNW,290,7.0,10.0,-999,-99.99,,,-99.99,,2013-01-18 02:23:00,
2013-01-17 21:33:00,11.0,-99.9,-100.00,West,280,6.0,9.0,-999,-99.99,,,-99.99,,2013-01-18 02:33:00,
2013-01-17 21:43:00,11.0,-99.9,-100.00,West,280,6.0,9.0,-999,-99.99,,,-99.99,,2013-01-18 02:43:00,
2013-01-17 21:53:00,11.0,-99.9,-100.00,WNW,290,6.0,9.0,-999,-99.99,,,-99.99,,2013-01-18 02:53:00,
2013-01-17 22:03:00,11.0,-99.9,-100.00,WNW,290,6.0,9.0,-999,-99.99,,,-99.99,,2013-01-18 03:03:00,
2013-01-17 22:13:00,11.0,-99.9,-100.00,WNW,290,7.0,10.0,-999,-99.99,,,-99.99,,2013-01-18 03:13:00,
2013-01-17 22:23:00,11.0,-99.9,-100.00,WNW,290,7.0,10.0,-999,-99.99,,,-99.99,,2013-01-18 03:23:00,
2013-01-17 22:33:00,11.0,-99.9,-100.00,WNW,290,9.0,13.0,-999,-99.99,,,-99.99,,2013-01-18 03:33:00,
2013-01-17 22:43:00,11.0,-99.9,-100.00,WNW,300,10.0,14.0,-999,-99.99,,,-99.99,,2013-01-18 03:43:00,
2013-01-17 22:53:00,11.0,-99.9,-100.00,WNW,300,10.0,14.0,-999,-99.99,,,-99.99,,2013-01-18 03:53:00,
2013-01-17 23:03:00,11.0,-99.9,-100.00,WNW,290,8.0,11.0,-999,-99.99,,,-99.99,,2013-01-18 04:03:00,
2013-01-17 23:12:00,11.0,-99.9,-100.00,West,280,7.0,10.0,-999,-99.99,,,-99.99,,2013-01-18 04:12:00,
2013-01-17 23:22:00,11.0,-99.9,-100.00,West,280,7.0,10.0,-999,-99.99,,,-99.99,,2013-01-18 04:22:00,
2013-01-17 23:33:00,10.0,-99.9,-100.00,West,270,7.0,10.0,-999,-99.99,,,-99.99,,2013-01-18 04:33:00,
2013-01-17 23:43:00,10.0,-99.9,-100.00,West,260,7.0,9.0,-999,-99.99,,,-99.99,,2013-01-18 04:43:00,
2013-01-17 23:53:00,10.0,-99.9,-100.00,West,260,7.0,9.0,-999,-99.99,,,-99.99,,2013-01-18 04:53:00,